Location: Unspecified
(33.2407°S, 0.0000°E)
Time: 13:27:23
(UTC+00:00)

Envisat - Pass Details

Date: 19 May 2019
Orbit: 764 x 766 km, 98.1° (Epoch: 20 June)

Event Time Altitude Azimuth Distance (km) Brightness Sun altitude
Exits shadow 19:11:46 51° 18° (NNE) 961 3.3 -26.1°
Drops below altitude 10° 19:15:41 10° 355° (N) 2,302 5.6 -26.9°
Sets 19:17:59 0° 353° (N) 3,220 6.4 -27.4°
